Dewpoint
70 68 69 70 71 69 70 70 72 72 72 71 71 70 71 73 71 70 69 69 71 68
68 68 68 69 70 69 70 70 70 71 71 71 70 69 71 70 68 71 71 69 69 71
64 64 65 65 65 66 66 68 68 69 70 70 70 70 70 70 71 70 70 67 69 69
59 58 59 59 60 61 61 62 64 66 67 67 68 69 70 70 70 70 71 70 70 71
55 55 53 55 55 58 59 60 60 61 63 63 64 66 67 68 69 69 70 70 70 70
55 54 54 55 56 56 57 57 58 59 60 61 62 62 63 65 67 68 68 68 69 69
54 55 55 57 57 58 58 58 57 57 58 59 59 59 61 64 64 66 66 68 68 69
56 56 57 57 57 57 58 57 58 58 58 57 56 53 57 58 59 62 64 65 66 68
56 56 56 57 57 57 57 57 58 58 58 59 57 58 58 58 56 58 62 63 64 66
56 56 56 55 55 56 57 57 58 58 59 59 60 60 59 59 59 57 59 61 62 63
55 55 55 54 55 56 56 57 57 58 58 58 59 58 59 59 60 58 57 59 61 61
54 55 54 54 55 56 56 56 56 56 58 59 59 59 56 56 60 57 57 57 60 61
55 55 54 54 56 57 57 57 58 58 59 59 58 58 55 54 58 57 56 56 59 61
54 55 54 56 56 57 56 57 57 57 58 57 57 57 54 52 55 56 57 59 60 64
Wind_Speed
3 4 4 5 8 8 9 7 9 10 11 11 10 11 10 12 14 14 14 15 14 18
5 5 4 4 4 5 7 9 10 9 8 7 9 11 12 15 16 14 15 15 16 15
3 3 4 4 5 6 7 8 10 10 9 8 9 10 10 13 15 16 16 15 15 16
5 5 5 7 7 8 10 11 12 12 13 12 11 10 11 10 13 15 16 17 16 16
5 7 8 10 10 10 11 12 12 12 13 13 14 13 12 14 14 12 13 16 16 16
8 9 10 11 12 13 13 13 14 13 13 14 14 15 16 16 15 14 15 14 14 15
7 8 10 10 12 13 13 14 14 14 15 14 14 14 16 12 14 16 15 14 14 15
7 8 9 10 11 11 11 11 13 14 14 15 15 14 13 14 16 17 17 17 15 13
8 8 10 11 12 11 11 11 12 13 14 15 14 16 17 16 17 18 17 17 17 15
7 8 9 9 10 9 12 12 12 12 13 14 15 15 16 17 16 17 18 16 18 17
6 7 7 9 9 9 10 11 11 12 13 13 12 13 16 18 17 17 18 18 17 18
6 7 7 8 9 9 10 10 10 10 12 12 12 13 16 18 17 17 16 16 15 15
7 7 7 7 9 9 9 10 10 11 9 9 10 10 18 18 14 15 14 13 12 8
7 6 6 8 8 9 9 8 8 8 7 8 8 10 14 18 13 12 13 14 11 7
Wind_Direction
263 297 304 294 301 297 305 314 326 296 280 278 281 281 280 273 262 257 252 254 251 268
51 33 14 356 336 332 322 324 311 312 316 304 283 290 300 276 271 264 263 260 258 254
65 17 338 311 332 328 313 310 309 318 319 315 308 307 306 291 276 270 262 255 254 253
2 340 325 324 328 329 323 324 324 324 325 318 315 317 307 295 291 281 272 269 261 258
2 341 339 334 332 329 325 321 318 317 314 317 318 318 313 307 300 286 279 275 271 266
352 345 341 338 333 330 326 322 317 317 316 313 312 310 307 300 311 301 289 278 270 261
353 346 340 337 333 330 327 323 322 317 311 307 305 300 294 299 309 304 296 291 281 280
341 338 330 331 329 328 323 325 323 321 319 316 309 299 345 320 309 302 297 295 291 276
330 327 328 336 333 327 328 328 329 328 326 321 313 353 346 329 306 297 293 294 292 289
320 324 331 330 328 325 323 328 325 321 326 323 318 345 334 321 301 288 282 282 287 289
323 330 334 330 332 327 325 320 317 316 320 323 322 323 325 322 300 286 276 273 278 287
312 315 321 320 328 321 320 321 311 311 314 320 325 10 360 339 316 299 291 279 276 283
289 302 306 316 317 323 322 314 333 333 347 16 350 11 1 348 316 313 310 281 267 278
285 302 306 312 318 329 315 325 335 343 342 358 1 356 4 351 338 331 320 312 316 350